Time,TemperatureF,DewpointF,PressureIn,WindDirection,WindDirectionDegrees,WindSpeedMPH,WindSpeedGustMPH,Humidity,HourlyPrecipIn,Conditions,Clouds,dailyrainin,SolarRadiationWatts/m^2,SoftwareType,DateUTC
2013-09-06 00:00:00,68.0,45.0,-100.00,NNW,332,0.0,6.0,44,0.00,,,0.00,0.000000,,2013-09-06 07:00:00,
2013-09-06 00:23:00,68.0,45.0,-100.00,NNW,332,0.0,6.0,44,0.00,,,0.00,0.000000,,2013-09-06 07:23:00,
2013-09-06 00:32:00,68.0,45.0,-100.00,NNW,332,0.0,6.0,44,0.00,,,0.00,0.000000,,2013-09-06 07:32:00,
2013-09-06 00:42:00,68.0,45.0,-100.00,NNW,332,0.0,6.0,44,0.00,,,0.00,0.000000,,2013-09-06 07:42:00,
2013-09-06 00:52:00,68.0,45.0,-100.00,NNW,332,0.0,6.0,44,0.00,,,0.00,0.000000,,2013-09-06 07:52:00,
2013-09-06 01:00:00,66.0,44.0,-100.00,North,358,3.0,7.0,45,0.00,,,0.00,0.000000,,2013-09-06 08:00:00,
2013-09-06 01:22:00,66.0,44.0,-100.00,North,358,3.0,7.0,45,0.00,,,0.00,0.000000,,2013-09-06 08:22:00,
2013-09-06 01:32:00,66.0,44.0,-100.00,North,358,3.0,7.0,45,0.00,,,0.00,0.000000,,2013-09-06 08:32:00,
2013-09-06 01:42:00,66.0,44.0,-100.00,North,358,3.0,7.0,45,0.00,,,0.00,0.000000,,2013-09-06 08:42:00,
2013-09-06 01:52:00,66.0,44.0,-100.00,North,358,3.0,7.0,45,0.00,,,0.00,0.000000,,2013-09-06 08:52:00,
2013-09-06 02:00:00,68.0,48.0,-100.00,North,0,2.0,6.0,48,0.00,,,0.00,0.000000,,2013-09-06 09:00:00,
2013-09-06 02:43:00,68.0,48.0,-100.00,North,0,2.0,6.0,48,0.00,,,0.00,0.000000,,2013-09-06 09:43:00,
2013-09-06 02:53:00,68.0,48.0,-100.00,North,0,2.0,6.0,48,0.00,,,0.00,0.000000,,2013-09-06 09:53:00,
2013-09-06 03:00:00,65.0,45.0,-100.00,North,3,2.0,6.0,49,0.00,,,0.00,0.000000,,2013-09-06 10:00:00,
2013-09-06 03:43:00,65.0,45.0,-100.00,North,3,2.0,6.0,49,0.00,,,0.00,0.000000,,2013-09-06 10:43:00,
2013-09-06 03:53:00,65.0,45.0,-100.00,North,3,2.0,6.0,49,0.00,,,0.00,0.000000,,2013-09-06 10:53:00,
2013-09-06 04:00:00,64.0,46.0,-100.00,North,352,2.0,5.0,52,0.00,,,-99.99,0.000000,,2013-09-06 11:00:00,
2013-09-06 04:22:00,64.0,46.0,-100.00,North,352,2.0,5.0,52,0.00,,,-99.99,0.000000,,2013-09-06 11:22:00,
2013-09-06 04:33:00,64.0,46.0,-100.00,North,352,2.0,5.0,52,0.00,,,-99.99,0.000000,,2013-09-06 11:33:00,
2013-09-06 04:42:00,64.0,46.0,-100.00,North,352,2.0,5.0,52,0.00,,,-99.99,0.000000,,2013-09-06 11:42:00,
2013-09-06 04:52:00,64.0,46.0,-100.00,North,352,2.0,5.0,52,0.00,,,-99.99,0.000000,,2013-09-06 11:52:00,
2013-09-06 05:00:00,65.0,47.0,-100.00,North,4,2.0,6.0,53,0.00,,,0.00,0.000000,,2013-09-06 12:00:00,
2013-09-06 05:22:00,65.0,47.0,-100.00,North,4,2.0,6.0,53,0.00,,,0.00,0.000000,,2013-09-06 12:22:00,
2013-09-06 05:32:00,65.0,47.0,-100.00,North,4,2.0,6.0,53,0.00,,,0.00,0.000000,,2013-09-06 12:32:00,
2013-09-06 05:42:00,65.0,47.0,-100.00,North,4,2.0,6.0,53,0.00,,,0.00,0.000000,,2013-09-06 12:42:00,
2013-09-06 05:52:00,65.0,47.0,-100.00,North,4,2.0,6.0,53,0.00,,,0.00,0.000000,,2013-09-06 12:52:00,
2013-09-06 06:00:00,62.0,45.0,-100.00,North,5,2.0,6.0,53,0.00,,,0.00,0.000000,,2013-09-06 13:00:00,
2013-09-06 06:42:00,62.0,45.0,-100.00,North,5,2.0,6.0,53,0.00,,,0.00,0.000000,,2013-09-06 13:42:00,
2013-09-06 06:52:00,62.0,45.0,-100.00,North,5,2.0,6.0,53,0.00,,,0.00,0.000000,,2013-09-06 13:52:00,
2013-09-06 07:00:00,62.0,44.0,-100.00,North,0,2.0,4.0,52,0.00,,,0.00,0.000000,,2013-09-06 14:00:00,
2013-09-06 07:42:00,62.0,44.0,-100.00,North,0,2.0,4.0,52,0.00,,,0.00,0.000000,,2013-09-06 14:42:00,
2013-09-06 07:52:00,62.0,44.0,-100.00,North,0,2.0,4.0,52,0.00,,,0.00,0.000000,,2013-09-06 14:52:00,
2013-09-06 08:00:00,64.0,39.0,-100.00,NE,37,1.0,5.0,39,0.00,,,0.00,5.000000,,2013-09-06 15:00:00,
2013-09-06 08:22:00,64.0,39.0,-100.00,NE,37,1.0,5.0,39,0.00,,,0.00,5.000000,,2013-09-06 15:22:00,
2013-09-06 08:34:00,64.0,39.0,-100.00,NE,37,1.0,5.0,39,0.00,,,0.00,5.000000,,2013-09-06 15:34:00,
2013-09-06 08:43:00,64.0,39.0,-100.00,NE,37,1.0,5.0,39,0.00,,,0.00,5.000000,,2013-09-06 15:43:00,
2013-09-06 08:53:00,64.0,39.0,-100.00,NE,37,1.0,5.0,39,0.00,,,0.00,5.000000,,2013-09-06 15:53:00,
2013-09-06 09:00:00,70.0,34.0,-100.00,West,281,1.0,3.0,26,0.00,,,0.00,176.000000,,2013-09-06 16:00:00,
2013-09-06 09:43:00,70.0,34.0,-100.00,West,281,1.0,3.0,26,0.00,,,0.00,176.000000,,2013-09-06 16:43:00,
2013-09-06 09:53:00,70.0,34.0,-100.00,West,281,1.0,3.0,26,0.00,,,0.00,176.000000,,2013-09-06 16:53:00,
2013-09-06 10:00:00,79.0,42.0,-100.00,NE,50,4.0,5.0,27,0.00,,,0.00,137.000000,,2013-09-06 17:00:00,
2013-09-06 10:24:00,79.0,42.0,-100.00,NE,50,4.0,5.0,27,0.00,,,0.00,137.000000,,2013-09-06 17:24:00,
2013-09-06 10:34:00,79.0,42.0,-100.00,NE,50,4.0,5.0,27,0.00,,,0.00,137.000000,,2013-09-06 17:34:00,
2013-09-06 10:43:00,79.0,42.0,-100.00,NE,50,4.0,5.0,27,0.00,,,0.00,137.000000,,2013-09-06 17:43:00,
2013-09-06 10:53:00,79.0,42.0,-100.00,NE,50,4.0,5.0,27,0.00,,,0.00,137.000000,,2013-09-06 17:53:00,
2013-09-06 11:00:00,79.0,29.0,-100.00,NNW,340,2.0,7.0,16,0.00,,,0.00,476.000000,,2013-09-06 18:00:00,
2013-09-06 11:42:00,79.0,29.0,-100.00,NNW,340,2.0,7.0,16,0.00,,,0.00,476.000000,,2013-09-06 18:42:00,
2013-09-06 11:52:00,79.0,29.0,-100.00,NNW,340,2.0,7.0,16,0.00,,,0.00,476.000000,,2013-09-06 18:52:00,
2013-09-06 12:00:00,87.0,28.0,-100.00,WNW,289,3.0,7.0,12,0.00,,,0.00,770.000000,,2013-09-06 19:00:00,
2013-09-06 12:43:00,87.0,28.0,-100.00,WNW,289,3.0,7.0,12,0.00,,,0.00,770.000000,,2013-09-06 19:43:00,
2013-09-06 12:52:00,87.0,28.0,-100.00,WNW,289,3.0,7.0,12,0.00,,,0.00,770.000000,,2013-09-06 19:52:00,
2013-09-06 13:00:00,91.0,35.0,-100.00,NW,307,4.0,13.0,14,0.00,,,0.00,934.000000,,2013-09-06 20:00:00,
2013-09-06 13:23:00,91.0,35.0,-100.00,NW,307,4.0,13.0,14,0.00,,,0.00,934.000000,,2013-09-06 20:23:00,
2013-09-06 13:32:00,91.0,35.0,-100.00,NW,307,4.0,13.0,14,0.00,,,0.00,934.000000,,2013-09-06 20:32:00,
2013-09-06 13:42:00,91.0,35.0,-100.00,NW,307,4.0,13.0,14,0.00,,,0.00,934.000000,,2013-09-06 20:42:00,
2013-09-06 13:52:00,91.0,35.0,-100.00,NW,307,4.0,13.0,14,0.00,,,0.00,934.000000,,2013-09-06 20:52:00,
2013-09-06 14:00:00,89.0,34.0,-100.00,SW,217,3.0,12.0,14,0.00,,,0.00,989.000000,,2013-09-06 21:00:00,
2013-09-06 14:43:00,89.0,34.0,-100.00,SW,217,3.0,12.0,14,0.00,,,0.00,989.000000,,2013-09-06 21:43:00,
2013-09-06 14:54:00,89.0,34.0,-100.00,SW,217,3.0,12.0,14,0.00,,,0.00,989.000000,,2013-09-06 21:54:00,
2013-09-06 15:00:00,88.0,29.0,-100.00,NW,322,4.0,18.0,12,0.00,,,-99.99,918.000000,,2013-09-06 22:00:00,
2013-09-06 15:44:00,88.0,29.0,-100.00,NW,322,4.0,18.0,12,0.00,,,-99.99,918.000000,,2013-09-06 22:44:00,
2013-09-06 15:53:00,88.0,29.0,-100.00,NW,322,4.0,18.0,12,0.00,,,-99.99,918.000000,,2013-09-06 22:53:00,
2013-09-06 16:00:00,94.0,34.0,-100.00,NW,308,4.0,15.0,12,0.00,,,0.00,918.000000,,2013-09-06 23:00:00,
2013-09-06 16:43:00,94.0,34.0,-100.00,NW,308,4.0,15.0,12,0.00,,,0.00,918.000000,,2013-09-06 23:43:00,
2013-09-06 16:52:00,94.0,34.0,-100.00,NW,308,4.0,15.0,12,0.00,,,0.00,918.000000,,2013-09-06 23:52:00,
2013-09-06 17:00:00,92.0,34.0,-100.00,NW,307,4.0,16.0,13,0.00,,,0.00,775.000000,,2013-09-07 00:00:00,
2013-09-06 17:22:00,92.0,34.0,-100.00,NW,307,4.0,16.0,13,0.00,,,0.00,775.000000,,2013-09-07 00:22:00,
2013-09-06 17:32:00,92.0,34.0,-100.00,NW,307,4.0,16.0,13,0.00,,,0.00,775.000000,,2013-09-07 00:32:00,
2013-09-06 17:42:00,92.0,34.0,-100.00,NW,307,4.0,16.0,13,0.00,,,0.00,775.000000,,2013-09-07 00:42:00,
2013-09-06 17:52:00,92.0,34.0,-100.00,NW,307,4.0,16.0,13,0.00,,,0.00,775.000000,,2013-09-07 00:52:00,
2013-09-06 18:00:00,89.0,35.0,-100.00,NE,35,3.0,13.0,15,-99.99,,,0.00,582.000000,,2013-09-07 01:00:00,
2013-09-06 18:42:00,89.0,35.0,-100.00,NE,35,3.0,13.0,15,-99.99,,,0.00,582.000000,,2013-09-07 01:42:00,
2013-09-06 18:53:00,89.0,35.0,-100.00,NE,35,3.0,13.0,15,-99.99,,,0.00,582.000000,,2013-09-07 01:53:00,
2013-09-06 19:00:00,85.0,42.0,-100.00,WNW,291,4.0,14.0,22,-99.99,,,0.00,359.000000,,2013-09-07 02:00:00,
2013-09-06 19:43:00,85.0,42.0,-100.00,WNW,291,4.0,14.0,22,-99.99,,,0.00,359.000000,,2013-09-07 02:43:00,
2013-09-06 19:52:00,85.0,42.0,-100.00,WNW,291,4.0,14.0,22,-99.99,,,0.00,359.000000,,2013-09-07 02:52:00,
2013-09-06 20:00:00,78.0,40.0,-100.00,South,184,3.0,15.0,26,0.00,,,0.00,98.000000,,2013-09-07 03:00:00,
2013-09-06 20:23:00,78.0,40.0,-100.00,South,184,3.0,15.0,26,0.00,,,0.00,98.000000,,2013-09-07 03:23:00,
2013-09-06 20:34:00,78.0,40.0,-100.00,South,184,3.0,15.0,26,0.00,,,0.00,98.000000,,2013-09-07 03:34:00,
2013-09-06 20:45:00,78.0,40.0,-100.00,South,184,3.0,15.0,26,0.00,,,0.00,98.000000,,2013-09-07 03:45:00,
2013-09-06 20:55:00,78.0,40.0,-100.00,South,184,3.0,15.0,26,0.00,,,0.00,98.000000,,2013-09-07 03:55:00,
2013-09-06 21:00:00,74.0,40.0,-100.00,North,351,0.0,15.0,29,0.00,,,0.00,1.000000,,2013-09-07 04:00:00,
2013-09-06 21:24:00,74.0,40.0,-100.00,North,351,0.0,15.0,29,0.00,,,0.00,1.000000,,2013-09-07 04:24:00,
2013-09-06 21:34:00,74.0,40.0,-100.00,North,351,0.0,15.0,29,0.00,,,0.00,1.000000,,2013-09-07 04:34:00,
2013-09-06 21:43:00,74.0,40.0,-100.00,North,351,0.0,15.0,29,0.00,,,0.00,1.000000,,2013-09-07 04:43:00,
2013-09-06 21:54:00,74.0,40.0,-100.00,North,351,0.0,15.0,29,0.00,,,0.00,1.000000,,2013-09-07 04:54:00,
2013-09-06 22:00:00,70.0,40.0,-100.00,North,353,1.0,12.0,33,0.00,,,0.00,0.000000,,2013-09-07 05:00:00,
2013-09-06 22:23:00,70.0,40.0,-100.00,North,353,1.0,12.0,33,0.00,,,0.00,0.000000,,2013-09-07 05:23:00,
2013-09-06 22:33:00,70.0,40.0,-100.00,North,353,1.0,12.0,33,0.00,,,0.00,0.000000,,2013-09-07 05:33:00,
2013-09-06 22:42:00,70.0,40.0,-100.00,North,353,1.0,12.0,33,0.00,,,0.00,0.000000,,2013-09-07 05:42:00,
2013-09-06 22:52:00,70.0,40.0,-100.00,North,353,1.0,12.0,33,0.00,,,0.00,0.000000,,2013-09-07 05:52:00,
2013-09-06 23:00:00,68.0,36.0,-100.00,West,271,3.0,3.0,31,0.00,,,0.00,0.000000,,2013-09-07 06:00:00,
2013-09-06 23:22:00,68.0,36.0,-100.00,West,271,3.0,3.0,31,0.00,,,0.00,0.000000,,2013-09-07 06:22:00,
2013-09-06 23:33:00,68.0,36.0,-100.00,West,271,3.0,3.0,31,0.00,,,0.00,0.000000,,2013-09-07 06:33:00,
2013-09-06 23:43:00,68.0,36.0,-100.00,West,271,3.0,3.0,31,0.00,,,0.00,0.000000,,2013-09-07 06:43:00,
2013-09-06 23:52:00,68.0,36.0,-100.00,West,271,3.0,3.0,31,0.00,,,0.00,0.000000,,2013-09-07 06:52:00,